Regional Weather Roundup
Issued by NWS Raleigh/Durham, NC

Home | Current Version | Previous Version | Text Only | Print | Product List | Glossary On
Versions: 1 2 3 4 5 6 7 8 9 10 11 12 13 14 15 16 17 18 19 20 21 22 23 24 25 26 27 28 29 30 31 32 33 34 35 36 37 38 39 40 41 42 43 44 45 46 47 48 49 50
000
ASUS42 KRAH 011610
RWRRAH
NORTH CAROLINA WEATHER ROUNDUP
NATIONAL WEATHER SERVICE RALEIGH NC
1100 AM EST SUN MAR 01 2015

NOTE: "FAIR" INDICATES FEW OR NO CLOUDS BELOW 12,000 FEET WITH NO
SIGNIFICANT WEATHER AND/OR OBSTRUCTIONS TO VISIBILITY.

NCZ001-053-055-056-065-067-011700-
WESTERN NORTH CAROLINA

CITY           SKY/WX    TMP DP  RH WIND       PRES   REMARKS
ASHEVILLE      CLOUDY    38  35  89 CALM      30.46F
JEFFERSON      CLOUDY    48  38  68 S5        30.41F
MORGANTON      CLOUDY    34  32  93 CALM      30.56F FOG
HICKORY        CLOUDY    32  30  92 N3        30.51F FOG
RUTHERFORDTON  CLOUDY    36  35  94 CALM      30.51F FOG
MOUNT AIRY     CLOUDY    33  27  79 CALM      30.54S
BOONE          CLOUDY    43  38  82 CALM      30.44R
$$

NCZ021-022-025-041-071-084-088-011700-
CENTRAL NORTH CAROLINA

CITY           SKY/WX    TMP DP  RH WIND       PRES   REMARKS
CHARLOTTE      CLOUDY    36  30  80 NE7       30.53F FOG     WCI  30
GREENSBORO     FRZ RAIN  31  29  92 N3        30.53F
WINSTON-SALEM  FRZ RAIN  31  28  89 VRB5      30.54F FOG     WCI  26
RALEIGH-DURHAM LGT RAIN  33  30  88 NE5       30.54F FOG     WCI  29
FORT BRAGG     RAIN      33  31  94 N7        30.52F FOG     WCI  26
FAYETTEVILLE   RAIN      33  31  92 NE10      30.51F FOG     WCI  25
BURLINGTON     MIX PCPN  32  29  88 NW3       30.54F FOG
LAURINBURG     CLOUDY    34  32  92 NE8       30.53F FOG     WCI  27
$$

NCZ011-015-027-028-043-044-047-080-103-011700-
NORTHEASTERN NORTH CAROLINA

CITY           SKY/WX    TMP DP  RH WIND       PRES   REMARKS
ROCKY MT-WILSO CLOUDY    32  30  92 N8        30.57F FOG     WCI  25
GREENVILLE     CLOUDY    34  32  93 N7        30.55F WCI  28
WASHINGTON     MOSUNNY   37  35  92 N6        30.55F WCI  32
ELIZABETH CITY LGT RAIN  38  35  89 N6        30.58S WCI  33
MANTEO         CLOUDY    46  45  93 CALM      30.56F
CAPE HATTERAS  PTSUNNY   54  46  74 SE12      30.53F
$$

NCZ078-087-090-091-093-098-101-011700-
SOUTHEASTERN NORTH CAROLINA

CITY           SKY/WX    TMP DP  RH WIND       PRES   REMARKS
LUMBERTON      CLOUDY    35  32  88 N8        30.53F FOG     WCI  29
GOLDSBORO      CLOUDY    35  35  99 NE7       30.52F WCI  29
KINSTON        CLOUDY    36  34  93 NE8       30.55F WCI  29
KENANSVILLE    CLOUDY    37  32  81 NE5       30.53F WCI  34
NEW BERN       CLOUDY    43  36  76 N6        30.54F
CHERRY POINT   CLOUDY    49  39  68 N12       30.53F
BEAUFORT       PTSUNNY   59  48  67 E6        30.51F
JACKSONVILLE   CLOUDY    49  38  65 N7        30.51F
WILMINGTON     CLOUDY    54  43  66 NE6       30.48F
$$




USA.gov is the U.S. government's official web portal to all federal, state and local government web resources and services.